Flag for U.S.A. Weather past 2 weeks in Jackson, Mississippi, U.S.A.

Now
76 °F

Passing clouds.


Feels Like: 77 °F
Forecast: 73 / 87 °F
Wind: 14 mph from Southwest

Location: Hawkins Field

Current Time: Jun 30, 2015 at 8:00:56 PM

Latest Report: Jun 30, 2015 at 6:53 PM


Visibility: 10 mi

Pressure: 30.00 "Hg

Humidity: 82%

Dew point: 70 °F

Location of JacksonLocation

Historic Weather in Jackson — Graph

°F

Jackson temperature yesterday

Maximum temperature yesterday: 90 °F (at 3:53 PM)
Minimum temperature yesterday: 69 °F (at 2:53 AM)
Average temperature yesterday: 80 °F

Past Weeks' High & Low Weather Summary

 TemperatureHumidityPressure
High94 °F (Jun 23, 2:53 PM)97% (Jun 16, 6:53 AM)30.15 "Hg (Jun 16, 6:53 AM)
Low69 °F (Jun 29, 2:53 AM)42% (Jun 28, 2:53 PM)29.90 "Hg (Jun 27, 2:53 AM)
Average81 °F73%30.03 "Hg
* Reported Jun 15 6:53 PM — Jun 30 6:53 PM, Jackson, Weather by CustomWeather, © 2015

Note: Actual official high and low records may vary slightly from our data, if they occured in-between our weather recording intervals... More about our weather records

Advertising

Jackson weather history for previous 24 hours

 ConditionsComfort  
Time TempWeatherWind HumidityBarometerVisibility
6:53 PM
Tue, Jun 30
76 °FPassing clouds.14 mph82%30.00 "Hg10 mi
6:04 PM78 °FThundershowers. Broken clouds.17 mph71%29.97 "Hg10 mi
5:53 PM78 °FLight rain. Broken clouds.15 mph74%29.96 "Hg10 mi
4:53 PM83 °FPassing clouds.10 mph61%29.95 "Hg10 mi
3:53 PM86 °FPassing clouds.13 mph67%29.96 "Hg10 mi
2:53 PM85 °FSunny.10 mph72%29.98 "Hg10 mi
1:53 PM81 °FSunny.8 mph74%30.01 "Hg10 mi
12:53 PM76 °FSunny.8 mph80%30.03 "Hg10 mi
11:53 AM70 °FPassing clouds.7 mph93%30.04 "Hg10 mi
10:53 AM70 °FLight rain. Fog.No wind90%30.06 "Hg5 mi
10:04 AM71 °FHeavy rain. Fog.9 mph93%30.11 "Hg1 mi
9:55 AM70 °FHeavy rain. Fog.9 mph90%30.12 "Hg1 mi
8:53 AM76 °FThundershowers. Mostly cloudy.9 mph85%30.03 "Hg10 mi
7:53 AM76 °FBroken clouds.13 mph82%30.01 "Hg10 mi
6:53 AM73 °FClear.8 mph81%30.00 "Hg10 mi
5:53 AM73 °FClear.8 mph79%29.99 "Hg10 mi
4:53 AM72 °FPassing clouds.5 mph81%29.99 "Hg10 mi
3:53 AM73 °FClear.5 mph76%29.98 "Hg10 mi
2:53 AM74 °FClear.6 mph71%29.95 "Hg10 mi
1:53 AM75 °FPassing clouds.8 mph71%29.96 "Hg10 mi
12:53 AM75 °FClear.5 mph69%29.98 "Hg10 mi
11:53 PM
Mon, Jun 29
76 °FClear.5 mph67%29.97 "Hg10 mi
10:53 PM76 °FClear.6 mph69%29.96 "Hg10 mi
9:53 PM77 °FClear.9 mph71%29.92 "Hg10 mi
8:53 PM79 °FPassing clouds.8 mph72%29.93 "Hg10 mi
Weather by CustomWeather, © 2015

See weather overviewHow to use our weather pages